{"data":{"norad_id":66120,"epoch":"2026-05-25T00:00:39.802752Z","epoch_age_seconds":69028,"freshness":"FRESH","line1":"1 66120U 25237G   26145.00046068  .00009693  00000+0  33907-3 0  9997","line2":"2 66120  53.1594  45.1969 0001183  62.8971 297.2150 15.30190689 34290","mean_motion":15.30190689,"eccentricity":0.0001183,"inclination_deg":53.1594,"raan_deg":45.1969,"arg_perigee_deg":62.8971,"mean_anomaly_deg":297.215,"bstar":0.00033907,"rev_number":3429,"period_min":94.105918324536,"perigee_km":474.43211568929,"apogee_km":476.05362536666,"semimajor_km":6853.379870528,"source":"CELESTRAK","updated_at":"2026-05-25T13:38:21.062495Z"}}